Date String (YYYY-MM-DD hh:mm:ss) UTC,Instrument flags,Ambient pressure (hPa),Sample flow (lpm),Bypass flow (lpm),Sample temperature (°C),Ambient temperature (°C),ASC tube jacket temperature (°C),LED temperature (°C),Box temperature (°C),Sample RH (%),Span deviation,Mass concentration (μg/m³),Mass concentration (μg/m³),Mass concentration (μg/m³)
DateTimeUTC,F1_M11,P_M11,Q1_M11,Q2_M11,T1_M11,T2_M11,T3_M11,T4_M11,T5_M11,U1_M11,ZSPAN_M11,X2_M11,X0_M11,X1_M11
2023-05-03 19:00:00,,0827.0,5.01,0.00,30.1,26.1,00.0,38.4,31.3,12.0,0000.0,0005.68,0018.57,0004.01
2023-05-03 19:01:00,,0827.0,4.99,0.00,30.0,26.4,00.0,38.4,31.2,11.8,0000.0,0005.73,0018.51,0003.98
2023-05-03 19:02:00,,0827.0,5.01,0.00,30.0,26.8,00.0,38.4,31.3,12.0,0000.0,0005.73,0016.63,0003.96
2023-05-03 19:03:00,,0827.0,5.00,0.00,30.0,27.2,00.0,38.4,31.3,11.3,0000.0,0005.66,0016.52,0003.89
2023-05-03 19:04:00,,0827.0,5.01,0.00,30.0,27.5,00.0,38.4,31.4,11.0,0000.0,0005.61,0017.01,0003.82
2023-05-03 19:05:00,,0827.0,4.98,0.00,30.0,27.8,00.0,38.4,31.4,10.9,0000.0,0005.59,0017.70,0003.79
2023-05-03 19:06:00,,0826.9,4.99,0.00,30.0,28.0,00.0,38.4,31.5,12.0,0000.0,0005.59,0017.48,0003.82
2023-05-03 19:07:00,,0826.9,5.02,0.00,30.0,28.2,00.0,38.4,31.5,11.9,0000.0,0005.62,0017.59,0003.89
2023-05-03 19:08:00,,0827.0,5.00,0.00,30.0,28.3,00.0,38.4,31.6,11.4,0000.0,0005.68,0018.20,0003.93
2023-05-03 19:09:00,,0827.0,4.99,0.00,30.0,28.5,00.0,38.4,31.6,11.0,0000.0,0005.70,0017.79,0003.94
2023-05-03 19:10:00,,0827.0,5.00,0.00,30.1,28.6,00.0,38.4,31.6,10.9,0000.1,0005.70,0016.66,0003.97
2023-05-03 19:11:00,,0827.0,5.00,0.00,30.1,28.7,00.0,38.4,31.7,11.9,0004.1,0005.72,0015.52,0004.03
2023-05-03 19:12:00,,0827.0,5.01,0.00,30.1,28.8,00.0,38.4,31.7,12.1,0003.7,0005.76,0016.13,0004.14
2023-05-03 19:13:00,,0826.9,5.01,0.00,30.2,28.9,00.0,38.4,31.7,11.7,0003.5,0005.82,0016.06,0004.28
2023-05-03 19:14:00,,0826.9,4.99,0.00,30.2,28.9,00.0,38.4,31.8,11.6,0003.3,0005.93,0016.52,0004.42
2023-05-03 19:15:00,,0826.9,4.99,0.00,30.2,29.0,00.0,38.5,31.8,11.6,0003.8,0006.05,0016.66,0004.56
2023-05-03 19:16:00,,0826.9,5.00,0.00,30.2,29.1,00.0,38.5,31.9,11.4,0004.0,0006.22,0017.63,0004.69
2023-05-03 19:17:00,,0826.9,5.00,0.00,30.3,29.1,00.0,38.5,31.9,11.0,0003.7,0006.30,0018.63,0004.72
2023-05-03 19:18:00,,0826.9,5.00,0.00,30.3,29.2,00.0,38.5,31.9,11.0,0003.5,0006.28,0019.10,0004.65
2023-05-03 19:19:00,,0826.9,5.00,0.00,30.3,29.2,00.0,38.5,31.9,11.1,0003.9,0006.17,0018.75,0004.59
2023-05-03 19:20:00,,0826.9,5.00,0.00,30.4,29.2,00.0,38.6,32.0,11.2,0004.2,0006.17,0019.06,0004.60
2023-05-03 19:21:00,,0826.9,4.99,0.00,30.4,28.8,00.0,38.6,32.0,11.3,0004.2,0006.19,0018.86,0004.60
2023-05-03 19:22:00,,0826.8,5.00,0.00,30.4,27.0,00.0,38.5,31.7,11.0,0000.5,0006.23,0018.94,0004.55
2023-05-03 19:23:00,,0826.8,5.02,0.00,30.2,25.8,00.0,38.4,31.5,10.9,0000.0,0006.15,0019.01,0004.43
2023-05-03 19:24:00,,0826.8,4.99,0.00,30.2,25.9,00.0,38.3,31.3,11.0,0000.0,0006.11,0019.08,0004.29
2023-05-03 19:25:00,,0826.8,4.98,0.00,30.0,26.2,00.0,38.4,31.2,11.2,0000.0,0006.05,0018.44,0004.16
2023-05-03 19:26:00,,0826.8,5.02,0.00,30.0,26.6,00.0,38.4,31.3,10.6,0000.0,0005.91,0017.84,0004.01
2023-05-03 19:27:00,,0826.8,5.00,0.00,30.0,27.0,00.0,38.4,31.3,10.9,0000.0,0005.78,0016.50,0003.89
2023-05-03 19:28:00,,0826.8,5.00,0.00,30.0,27.3,00.0,38.4,31.4,10.9,0000.0,0005.67,0015.95,0003.81
2023-05-03 19:29:00,,0826.8,4.99,0.00,30.0,27.6,00.0,38.4,31.4,11.0,0000.0,0005.65,0015.93,0003.78
2023-05-03 19:30:00,,0826.8,5.00,0.00,30.0,27.9,00.0,38.4,31.5,11.0,0000.0,0005.63,0015.52,0003.74
2023-05-03 19:31:00,,0826.8,5.01,0.00,30.0,28.1,00.0,38.4,31.5,11.0,0000.0,0005.57,0015.59,0003.68
2023-05-03 19:32:00,,0826.8,5.01,0.00,30.0,28.3,00.0,38.4,31.6,10.8,0000.0,0005.49,0015.48,0003.62
2023-05-03 19:33:00,,0826.8,5.00,0.00,30.1,28.5,00.0,38.4,31.6,10.6,0000.0,0005.40,0015.20,0003.57
2023-05-03 19:34:00,,0826.8,5.00,0.00,30.1,28.6,00.0,38.4,31.6,10.7,0000.0,0005.35,0014.32,0003.57
2023-05-03 19:35:00,,0826.8,5.00,0.00,30.1,28.7,00.0,38.4,31.7,10.7,0000.0,0005.33,0014.45,0003.56
2023-05-03 19:36:00,,0826.8,5.00,0.00,30.1,28.8,00.0,38.4,31.7,10.7,0000.0,0005.28,0014.57,0003.55
2023-05-03 19:37:00,,0826.8,5.00,0.00,30.2,28.9,00.0,38.4,31.8,10.6,0000.0,0005.33,0014.93,0003.55
2023-05-03 19:38:00,,0826.8,5.00,0.00,30.2,28.9,00.0,38.4,31.8,10.4,0000.0,0005.34,0014.61,0003.54
2023-05-03 19:39:00,,0826.7,5.01,0.00,30.2,29.0,00.0,38.5,31.9,11.0,0000.0,0005.34,0014.93,0003.55
2023-05-03 19:40:00,,0826.7,5.00,0.00,30.2,29.1,00.0,38.5,31.9,10.7,0000.0,0005.29,0014.47,0003.56
2023-05-03 19:41:00,,0826.6,5.00,0.00,30.3,29.1,00.0,38.5,31.9,10.7,0000.0,0005.33,0014.78,0003.57
2023-05-03 19:42:00,,0826.7,5.00,0.00,30.3,29.2,00.0,38.5,31.9,10.9,0000.0,0005.35,0015.08,0003.58
2023-05-03 19:43:00,,0826.6,5.00,0.00,30.3,29.1,00.0,38.5,32.0,10.8,0000.0,0005.31,0015.14,0003.58
2023-05-03 19:44:00,,0826.6,4.98,0.00,30.3,27.6,00.0,38.5,31.7,11.0,0000.0,0005.32,0015.36,0003.59
2023-05-03 19:45:00,,0826.6,5.02,0.00,30.2,25.8,00.0,38.4,31.4,11.1,0000.0,0005.35,0015.59,0003.59
2023-05-03 19:46:00,,0826.6,5.01,0.00,30.1,25.6,00.0,38.3,31.3,11.1,0000.0,0005.31,0016.59,0003.59
2023-05-03 19:47:00,,0826.6,4.99,0.00,30.0,25.9,00.0,38.3,31.2,10.9,0000.0,0005.33,0016.88,0003.59
2023-05-03 19:48:00,,0826.6,5.00,0.00,29.9,26.3,00.0,38.3,31.2,10.7,0000.0,0005.30,0016.44,0003.57
2023-05-03 19:49:00,,0826.6,5.00,0.00,29.9,26.7,00.0,38.3,31.2,11.3,0000.0,0005.25,0016.19,0003.56
2023-05-03 19:50:00,,0826.6,5.01,0.00,29.9,27.1,00.0,38.3,31.3,10.9,0000.0,0005.28,0015.85,0003.57
2023-05-03 19:51:00,,0826.6,4.99,0.00,29.9,27.4,00.0,38.3,31.3,11.0,0000.0,0005.35,0015.56,0003.58
2023-05-03 19:52:00,,0826.6,5.00,0.00,29.9,27.7,00.0,38.3,31.4,11.1,0000.0,0005.34,0015.77,0003.58
2023-05-03 19:53:00,,0826.6,5.00,0.00,29.9,27.9,00.0,38.3,31.4,10.5,0000.0,0005.31,0015.67,0003.57
2023-05-03 19:54:00,,0826.5,5.00,0.00,30.0,28.1,00.0,38.3,31.5,10.5,0000.0,0005.31,0015.10,0003.56
2023-05-03 19:55:00,,0826.6,5.00,0.00,30.0,28.3,00.0,38.3,31.5,10.2,0000.0,0005.39,0014.92,0003.56
2023-05-03 19:56:00,,0826.6,5.00,0.00,30.0,28.4,00.0,38.3,31.5,10.2,0000.0,0005.37,0014.97,0003.56
2023-05-03 19:57:00,,0826.6,5.00,0.00,30.0,28.6,00.0,38.3,31.6,10.6,0000.0,0005.35,0013.74,0003.55
2023-05-03 19:58:00,,0826.6,5.01,0.00,30.1,28.7,00.0,38.3,31.6,10.3,0000.0,0005.33,0013.70,0003.56
2023-05-03 19:59:00,,0826.6,5.00,0.00,30.1,28.8,00.0,38.3,31.7,10.6,0000.0,0005.29,0013.88,0003.57
